User: anonymous
Location: Summit Observatory
(39.5293°N, 75.7290°W)
Time: 18:59:24
(UTC-04:00)
Language:

Gurwin Techsat 1B - Orbit

View from above orbital plane
View from above orbital plane
View from above satellite
View from above satellite

Ground track
Ground track

The orbit data is extracted from the following two-line orbital elements,

1 25397U 98043D   14237.81928282  .00000032  00000-0  32412-4 0  4252
2 25397 098.4758 193.2333 0002479 105.1151 310.5430 14.23456104837777
Epoch (UTC): 25 August 2014 19:39:46
Eccentricity: 0.0002479
inclination: 98.4758°
perigee height: 812 km
apogee height: 815 km
right ascension of ascending node: 193.2333°
argument of perigee: 105.1151°
revolutions per day: 14.23456104
mean anomaly at epoch: 310.5430°
orbit number at epoch: 83777

The dashed part of the orbit path shows where the satellite is in the earth's shadow,  

DLR